Previsão horária em Cento

Hoje, 27 Julho, Terça-feira

Tempo Temperatura Precipitação Vento Pressão Humidade
00:00 +21°C° 0 mm 3 m/s 759 mmHg 91%
01:00 +20°C° 0 mm 2 m/s 759 mmHg 93%
02:00 +20°C° 0.1 mm 2 m/s 759 mmHg 94%
03:00 +20°C° 0.1 mm 2 m/s 759 mmHg 94%
04:00 +21°C° 0.1 mm 1 m/s 759 mmHg 94%
05:00 +22°C° 0 mm 1 m/s 759 mmHg 90%
06:00 +23°C° 0 mm 1 m/s 760 mmHg 86%
07:00 +24°C° 0 mm 1 m/s 760 mmHg 82%
08:00 +26°C° 0 mm 1 m/s 760 mmHg 72%
09:00 +28°C° 0 mm 1 m/s 760 mmHg 62%
10:00 +31°C° 0 mm 1 m/s 760 mmHg 52%
11:00 +34°C° 0 mm 2 m/s 759 mmHg 45%
12:00 +35°C° 0 mm 2 m/s 759 mmHg 39%
13:00 +37°C° 0 mm 3 m/s 758 mmHg 33%
14:00 +36°C° 0.3 mm 3 m/s 758 mmHg 36%
15:00 +35°C° 0.3 mm 4 m/s 758 mmHg 39%
16:00 +34°C° 0.3 mm 5 m/s 758 mmHg 42%
17:00 +32°C° 0 mm 4 m/s 758 mmHg 51%
18:00 +29°C° 0 mm 4 m/s 758 mmHg 60%
19:00 +27°C° 0 mm 4 m/s 759 mmHg 69%
20:00 +25°C° 0 mm 3 m/s 759 mmHg 75%
21:00 +24°C° 0 mm 2 m/s 759 mmHg 80%
22:00 +23°C° 0 mm 2 m/s 759 mmHg 86%
23:00 +23°C° 0 mm 2 m/s 759 mmHg 87%

Amanhã, 28 Julho, Quarta-feira

Tempo Temperatura Precipitação Vento Pressão Humidade
00:00 +21°C° 0 mm 2 m/s 759 mmHg 88%
01:00 +21°C° 0 mm 2 m/s 759 mmHg 89%
02:00 +22°C° 0 mm 1 m/s 759 mmHg 90%
03:00 +22°C° 0 mm 1 m/s 759 mmHg 91%
04:00 +21°C° 0 mm 1 m/s 759 mmHg 92%
05:00 +22°C° 0 mm 1 m/s 759 mmHg 87%
06:00 +23°C° 0 mm 1 m/s 759 mmHg 82%
07:00 +25°C° 0 mm 1 m/s 759 mmHg 77%
08:00 +27°C° 0 mm 1 m/s 759 mmHg 68%
09:00 +29°C° 0 mm 1 m/s 759 mmHg 58%
10:00 +31°C° 0 mm 1 m/s 759 mmHg 49%
11:00 +33°C° 0 mm 1 m/s 758 mmHg 44%
12:00 +36°C° 0 mm 2 m/s 758 mmHg 38%
13:00 +37°C° 0 mm 2 m/s 757 mmHg 33%
14:00 +38°C° 0 mm 2 m/s 757 mmHg 30%
15:00 +38°C° 0 mm 3 m/s 756 mmHg 28%
16:00 +40°C° 0 mm 4 m/s 756 mmHg 26%
17:00 +37°C° 0 mm 4 m/s 756 mmHg 33%
18:00 +34°C° 0 mm 4 m/s 757 mmHg 41%
19:00 +32°C° 0 mm 4 m/s 757 mmHg 48%
20:00 +30°C° 0 mm 3 m/s 757 mmHg 56%
21:00 +28°C° 0 mm 2 m/s 758 mmHg 63%
22:00 +26°C° 0 mm 1 m/s 758 mmHg 71%
23:00 +25°C° 0 mm 1 m/s 758 mmHg 72%

Depois de amanhã, 29 Julho, Quinta-feira

Tempo Temperatura Precipitação Vento Pressão Humidade
00:00 +25°C° 0 mm 1 m/s 758 mmHg 73%
01:00 +25°C° 0 mm 1 m/s 758 mmHg 73%
02:00 +24°C° 0 mm 1 m/s 758 mmHg 75%
03:00 +24°C° 0 mm 1 m/s 758 mmHg 76%
04:00 +23°C° 0 mm 1 m/s 758 mmHg 77%
05:00 +24°C° 0 mm 1 m/s 759 mmHg 73%
06:00 +25°C° 0 mm 1 m/s 759 mmHg 69%
07:00 +24°C° 0 mm 0 m/s 759 mmHg 65%
08:00 +29°C° 0 mm 1 m/s 759 mmHg 57%
09:00 +31°C° 0 mm 1 m/s 759 mmHg 49%
10:00 +33°C° 0 mm 1 m/s 759 mmHg 41%
11:00 +35°C° 0 mm 1 m/s 758 mmHg 37%
12:00 +36°C° 0 mm 1 m/s 758 mmHg 32%
13:00 +39°C° 0 mm 2 m/s 757 mmHg 27%
14:00 +39°C° 0 mm 2 m/s 757 mmHg 26%
15:00 +40°C° 0 mm 3 m/s 756 mmHg 25%
16:00 +40°C° 0 mm 3 m/s 756 mmHg 24%
17:00 +38°C° 0 mm 4 m/s 756 mmHg 31%
18:00 +36°C° 0 mm 4 m/s 756 mmHg 37%
19:00 +33°C° 0 mm 5 m/s 756 mmHg 44%
20:00 +30°C° 0 mm 4 m/s 756 mmHg 51%
21:00 +28°C° 0 mm 3 m/s 756 mmHg 57%
22:00 +26°C° 0 mm 2 m/s 756 mmHg 64%
23:00 +26°C° 0 mm 2 m/s 756 mmHg 65%

30 Julho, Sexta-feira

Tempo Temperatura Precipitação Vento Pressão Humidade
00:00 +25°C° 0 mm 2 m/s 756 mmHg 66%
01:00 +25°C° 0 mm 1 m/s 756 mmHg 68%
02:00 +24°C° 0 mm 1 m/s 756 mmHg 69%
03:00 +24°C° 0 mm 1 m/s 756 mmHg 70%
04:00 +23°C° 0 mm 1 m/s 756 mmHg 72%
05:00 +25°C° 0 mm 1 m/s 756 mmHg 67%
06:00 +26°C° 0 mm 1 m/s 756 mmHg 62%
07:00 +27°C° 0 mm 1 m/s 756 mmHg 57%
08:00 +29°C° 0 mm 1 m/s 756 mmHg 50%
09:00 +32°C° 0 mm 2 m/s 756 mmHg 42%
10:00 +35°C° 0 mm 2 m/s 756 mmHg 34%
11:00 +37°C° 0 mm 2 m/s 755 mmHg 30%
12:00 +39°C° 0 mm 2 m/s 755 mmHg 26%
13:00 +40°C° 0 mm 2 m/s 754 mmHg 21%
14:00 +41°C° 0 mm 2 m/s 753 mmHg 20%
15:00 +43°C° 0 mm 3 m/s 753 mmHg 18%
16:00 +43°C° 0 mm 3 m/s 752 mmHg 17%
17:00 +40°C° 0 mm 3 m/s 752 mmHg 21%
18:00 +38°C° 0 mm 3 m/s 752 mmHg 25%
19:00 +36°C° 0 mm 4 m/s 752 mmHg 30%
20:00 +33°C° 0 mm 3 m/s 753 mmHg 37%
21:00 +29°C° 0 mm 2 m/s 753 mmHg 45%
22:00 +27°C° 0 mm 2 m/s 753 mmHg 53%
23:00 +26°C° 0 mm 2 m/s 753 mmHg 54%

31 Julho, Sábado

Tempo Temperatura Precipitação Vento Pressão Humidade
00:00 +25°C° 0 mm 2 m/s 753 mmHg 56%
01:00 +25°C° 0 mm 2 m/s 753 mmHg 57%
02:00 +24°C° 0 mm 2 m/s 753 mmHg 58%
03:00 +23°C° 0 mm 2 m/s 753 mmHg 59%
04:00 +23°C° 0 mm 2 m/s 753 mmHg 61%
05:00 +24°C° 0 mm 2 m/s 754 mmHg 58%
06:00 +25°C° 0 mm 2 m/s 754 mmHg 56%
07:00 +26°C° 0 mm 2 m/s 754 mmHg 54%
08:00 +29°C° 0 mm 2 m/s 754 mmHg 46%
09:00 +31°C° 0 mm 2 m/s 754 mmHg 39%
10:00 +34°C° 0 mm 3 m/s 754 mmHg 32%
11:00 +36°C° 0 mm 3 m/s 753 mmHg 29%
12:00 +37°C° 0 mm 3 m/s 753 mmHg 26%
13:00 +39°C° 0 mm 3 m/s 752 mmHg 23%
14:00 +40°C° 0 mm 4 m/s 752 mmHg 21%
15:00 +41°C° 0 mm 4 m/s 752 mmHg 19%
16:00 +42°C° 0 mm 5 m/s 751 mmHg 17%
17:00 +40°C° 0 mm 4 m/s 752 mmHg 21%
18:00 +37°C° 0 mm 4 m/s 752 mmHg 25%
19:00 +35°C° 0 mm 3 m/s 752 mmHg 29%
20:00 +31°C° 0 mm 3 m/s 752 mmHg 36%
21:00 +29°C° 0 mm 3 m/s 753 mmHg 44%
22:00 +26°C° 0 mm 2 m/s 753 mmHg 52%
23:00 +25°C° 0 mm 2 m/s 753 mmHg 54%

1 Agosto, Domingo

Tempo Temperatura Precipitação Vento Pressão Humidade
00:00 +25°C° 0 mm 2 m/s 753 mmHg 56%
01:00 +24°C° 0 mm 2 m/s 753 mmHg 58%
02:00 +23°C° 0 mm 2 m/s 753 mmHg 65%
03:00 +21°C° 0 mm 2 m/s 753 mmHg 72%
04:00 +21°C° 0 mm 2 m/s 753 mmHg 79%
05:00 +23°C° 0 mm 2 m/s 753 mmHg 75%
06:00 +24°C° 0 mm 2 m/s 754 mmHg 71%
07:00 +25°C° 0 mm 1 m/s 754 mmHg 67%
08:00 +27°C° 0 mm 2 m/s 754 mmHg 58%
09:00 +29°C° 0 mm 3 m/s 754 mmHg 50%
10:00 +31°C° 0 mm 3 m/s 754 mmHg 41%
11:00 +33°C° 0 mm 4 m/s 753 mmHg 38%
12:00 +35°C° 0 mm 4 m/s 753 mmHg 34%
13:00 +36°C° 0 mm 4 m/s 753 mmHg 31%
14:00 +36°C° 0 mm 4 m/s 753 mmHg 31%
15:00 +35°C° 0 mm 4 m/s 753 mmHg 31%
16:00 +35°C° 0 mm 4 m/s 753 mmHg 32%
17:00 +33°C° 0.1 mm 4 m/s 754 mmHg 38%
18:00 +30°C° 0.1 mm 4 m/s 754 mmHg 44%
19:00 +29°C° 0.1 mm 3 m/s 754 mmHg 50%
20:00 +27°C° 0 mm 3 m/s 755 mmHg 58%
21:00 +25°C° 0 mm 2 m/s 755 mmHg 65%
22:00 +23°C° 0 mm 2 m/s 756 mmHg 73%
23:00 +23°C° 0 mm 2 m/s 756 mmHg 71%
Mostrar mais

Necessitamos do seu Consentimento

A Meteoprog e os seus Fornecedores de Serviços podem armazenar e aceder a dados pessoais como cookies, identificadores do dispositivo ou outras tecnologias semelhantes existentes no seu dispositivo e processar estes dados para personalizar conteúdos e anúncios, assim como funcionalidades nas redes sociais e análise de tráfego.

  • Armazenar e/ou aceder a informações no seu dispositivo

    Os cookies, identificadores do dispositivo ou outras informações podem ser armazenados ou acedidos no seu dispositivo, para os fins acima indicados.

  • Anúncios e conteúdos personalizados, medição de anúncios e conteúdos, dados sobre o público-alvo e desenvolvimento de produtos

    Os anúncios e os conteúdos podem ser personalizados com base num perfil. Podem ser adicionados dados adicionais para uma maior personalização dos anúncios e dos conteúdos. A eficácia dos anúncios e dos conteúdos pode ser medida. Podem ser obtidas informações sobre o público que visualizou os anúncios e os conteúdos. Estes dados podem ser usados para desenvolver ou melhorar sistemas, softwares ou a experiência do utilizador.

Ao clicar em "Eu concordo”, permitirá o uso de cookies, identificadores do dispositivo e web beacons mencionados ou outras tecnologias semelhantes. As configurações do navegador do seu dispositivo podem ser alteradas.

Para certos fins, podem ser invocados interesses legítimos ao invés de consentimento. Pode ler mais informação sobre este assunto na nossa Política de Privacidade e Cookies.